Lander, WY

10:40 PM MST on December 14, 2017 (GMT -0700)
Hunt

Weather History for KLND - January, 2012

Change the Weather History Date:

Sunday, January 8, 2012

  Actual Average Record
Temperature  
Mean Temperature 20 °F 21 °F  
Max Temperature 31 °F 33 °F 55 °F (2009)
Min Temperature 9 °F 10 °F -26 °F (1937)
Degree Days  
Heating Degree Days 45 44  
Month to date heating degree days 313 352  
Since 1 July heating degree days 3379 3598  
Cooling Degree Days 0 0  
Month to date cooling degree days 0 0  
Year to date cooling degree days 0 0  
Moisture  
Dew Point 11 °F    
Average Humidity 62    
Maximum Humidity 77    
Minimum Humidity 47    
Precipitation  
Precipitation 0.00 in 0.02 in 0.34 in (1962)
Month to date precipitation 0.00 0.12  
Year to date precipitation 0.00 0.12  
Snow  
Snow 0.00 in 0.20 in - ()
Month to date snowfall 0.0 2.1  
Since 1 July snowfall 29.1 37.8  
Snow Depth -    
Sea Level Pressure  
Sea Level Pressure 30.28 in    
Wind  
Wind Speed 2 mph (NW)    
Max Wind Speed 7 mph    
Max Gust Speed -    
Visibility 10 miles    
Events      
T = Trace of Precipitation, MM = Missing Value Source: NWS Daily Summary

Daily Weather History Graph

Daily Weather History Graph

Search for Another Location

Airport or City:

Trip Planner

Search our weather history database for the weather conditions in past years. The results will help you decide how hot, cold, wet, or windy it might be!

Date:

Astronomy

Jan. 08, 2012 Rise Set
Actual Time 7:45 AM MST 4:57 PM MST
Civil Twilight 7:13 AM MST 5:29 PM MST
Nautical Twilight 6:38 AM MST 6:05 PM MST
Astronomical Twilight 6:04 AM MST 6:39 PM MST
Moon 4:44 PM MST (1/8) 7:05 AM MST (1/8)
Length of Visible Light 10h 16m
Length of Day
9h 12m
Full, 100% of the Moon is Illuminated
Jan 8
Full
Jan 9
Full
Jan 16
Last Quarter
Jan 23
New
Jan 30
First Quarter

Hourly Weather History & Observations

Time (MST) Temp. Windchill Dew Point Humidity Pressure Visibility Wind Dir Wind Speed Gust Speed Precip Events Conditions
12:53 AM 17.1 °F 8.7 °F 8.1 °F 68% 30.20 in 10.0 mi NW 5.8 mph - N/A   Clear
1:53 AM 18.0 °F 11.1 °F 7.0 °F 62% 30.20 in 10.0 mi NW 4.6 mph - N/A   Clear
2:53 AM 18.0 °F 12.7 °F 8.1 °F 65% 30.19 in 10.0 mi SE 3.5 mph - N/A   Clear
3:53 AM 17.1 °F 11.7 °F 5.0 °F 59% 30.21 in 10.0 mi SW 3.5 mph - N/A   Clear
4:53 AM 18.0 °F - 6.1 °F 60% 30.21 in 10.0 mi Calm Calm - N/A   Clear
5:53 AM 12.9 °F - 3.9 °F 67% 30.24 in 10.0 mi Calm Calm - N/A   Clear
6:53 AM 15.1 °F 7.7 °F 5.0 °F 64% 30.25 in 10.0 mi West 4.6 mph - N/A   Clear
7:53 AM 12.0 °F - 3.9 °F 70% 30.29 in 10.0 mi Calm Calm - N/A   Clear
8:53 AM 18.0 °F - 8.1 °F 65% 30.29 in 10.0 mi Calm Calm - N/A   Clear
9:53 AM 18.0 °F - 10.0 °F 71% 30.31 in 10.0 mi Calm Calm - N/A   Clear
10:53 AM 23.0 °F - 8.1 °F 53% 30.31 in 10.0 mi Calm Calm - N/A   Clear
11:53 AM 27.0 °F - 10.0 °F 49% 30.26 in 10.0 mi Calm Calm - N/A   Clear
12:53 PM 30.0 °F 25.2 °F 12.0 °F 47% 30.24 in 10.0 mi North 4.6 mph - N/A   Clear
1:53 PM 30.0 °F 24.1 °F 15.1 °F 54% 30.26 in 10.0 mi NNE 5.8 mph - N/A   Clear
2:53 PM 30.9 °F 26.2 °F 16.0 °F 54% 30.27 in 10.0 mi NNE 4.6 mph - N/A   Clear
3:53 PM 28.9 °F - 16.0 °F 58% 30.29 in 10.0 mi Calm Calm - N/A   Clear
4:53 PM 27.0 °F - 16.0 °F 63% 30.30 in 10.0 mi Calm Calm - N/A   Clear
5:53 PM 26.1 °F - 16.0 °F 66% 30.32 in 10.0 mi Calm Calm - N/A   Clear
6:53 PM 24.1 °F - 15.1 °F 69% 30.33 in 10.0 mi Calm Calm - N/A   Clear
7:53 PM 24.1 °F - 15.1 °F 69% 30.36 in 10.0 mi Calm Calm - N/A   Clear
8:53 PM 24.1 °F - 15.1 °F 69% 30.33 in 10.0 mi Calm Calm - N/A   Clear
9:53 PM 21.9 °F - 15.1 °F 75% 30.35 in 10.0 mi Calm Calm - N/A   Clear
10:53 PM 21.9 °F 13.4 °F 14.0 °F 72% 30.36 in 10.0 mi West 6.9 mph - N/A   Clear
11:53 PM 23.0 °F 15.8 °F 15.1 °F 72% 30.35 in 10.0 mi WSW 5.8 mph - N/A   Clear